Find Starlink 32626

NORAD ID: 62123 Int'l Des: 2024-222 Owner: SPXS Country: US Constellation: starlink operational
LEOCIRCULAR

リアルタイム位置

3D地球を読み込み中...

Starlink 32626について

説明を読み込み中...

次回通過

Passes for default location (London). Set your location on the main map for personalized predictions.

高度履歴

Loading altitude history...

軌道要素

1 62123U 24222K 26126.47247515 .00021712 00000-0 79595-3 0 9999
2 62123 42.9997 170.0646 0001600 272.7190 87.3478 15.27589629 81588
Epoch: May 6, 2026 • Age: 5 hours

現在のステータス

高度 487.1 km
速度 7.63 km/s
衛星直下点 42.49°N, 135.99°E
打ち上げ日 Nov 27, 2024
運用期間 1.4 years
タイプ internet

技術仕様

分類 Payload
質量 730.00 kg
乾燥質量 700.00 kg
総質量 730.00 kg
長さ 0.30 m
直径 4.10 m
スパン 29.00 m
形状 Box + pan
製造者 SPXS
バスタイプ Starlink V2M
フェーズステータス In Orbit
所有者/国 SPXS/US

Most Searched